User: anonymous   Login
Location: Oshawa
(43.9000°N, 78.8670°W)
Time: 21:55:04
(UTC-05:00)
Language:

CZ-4C R/B - Orbit

View from above orbital plane
View from above orbital plane
View from above satellite
View from above satellite

Ground track
Ground track

The orbit data is extracted from the following two-line orbital elements,

1 32290U 07055B   15058.72373766  .00007724  00000-0  27299-3 0  9995
2 32290 097.5491 140.6571 0080164 233.5769 242.9215 15.26419237403193
Epoch (UTC): 27 February 2015 17:22:10
Eccentricity: 0.0080164
inclination: 97.5491°
perigee height: 431 km
apogee height: 541 km
right ascension of ascending node: 140.6571°
argument of perigee: 233.5769°
revolutions per day: 15.26419237
mean anomaly at epoch: 242.9215°
orbit number at epoch: 40319

The dashed part of the orbit path shows where the satellite is in the earth's shadow,  

DLR